User: anonymous   Login
Location: Unspecified
(0.0000°N, 0.0000°E)
Time: 16:15:36
(UTC+00:00)
Language:

COSMOS 1867 COOLANT - Orbit

View from above orbital plane
View from above orbital plane
View from above satellite
View from above satellite

Ground track
Ground track

The orbit data is extracted from the following two-line orbital elements,

1 39640U 87060H   21336.28425998  .00000052  00000-0  56242-4 0  9995
2 39640  65.0107 338.8505 0020332 263.4978  96.3792 14.32188385400401
Epoch (UTC): 02 December 2021 06:49:20
Eccentricity: 0.0020332
inclination: 65.0107°
perigee height: 770 km
apogee height: 799 km
right ascension of ascending node: 338.8505°
argument of perigee: 263.4978°
revolutions per day: 14.32188385
mean anomaly at epoch: 96.3792°
orbit number at epoch: 40040

The dashed part of the orbit path shows where the satellite is in the earth's shadow,  

DLR